SVA525 OBBI-OEJN

Flight info

Callsign SVA525
Flight time 2h 0m
Altitude 36000
Route BHR B457 NARMI N112 GETOT Q212 KSA M309 VEMEM
Aircraft A320/M-SDE3FGHIRWY/LB1

Departure

Time 2026-05-08 11:36
Airport Bahrain International Airport (OBBI)

Arrival

Time 2026-05-08 13:36
Airport King Abdulaziz International Airport (OEJN)
Time Latitude Longitude Altitude Speed Heading
2026-05-08 11:28 26.26681 50.63485 22 ft 3 kts 164°
2026-05-08 11:28 26.26693 50.63478 24 ft 1 kts 123°
2026-05-08 11:29 26.26695 50.63474 23 ft 0 kts 123°
2026-05-08 11:31 26.26694 50.63475 23 ft 3 kts 123°
2026-05-08 11:31 26.26661 50.63532 21 ft 15 kts 123°
2026-05-08 11:31 26.26598 50.63643 21 ft 19 kts 122°
2026-05-08 11:32 26.26518 50.63787 23 ft 24 kts 122°
2026-05-08 11:32 26.26430 50.63936 21 ft 16 kts 123°
2026-05-08 11:32 26.26422 50.63991 21 ft 6 kts 69°
2026-05-08 11:32 26.26464 50.64083 20 ft 21 kts 107°
2026-05-08 11:33 26.26373 50.64246 20 ft 30 kts 120°
2026-05-08 11:33 26.26269 50.64439 18 ft 25 kts 128°
2026-05-08 11:33 26.26163 50.64602 22 ft 29 kts 123°
2026-05-08 11:33 26.26048 50.64803 21 ft 17 kts 121°
2026-05-08 11:34 26.26022 50.64913 21 ft 14 kts 77°
2026-05-08 11:34 26.26031 50.64938 20 ft 0 kts 62°
2026-05-08 11:34 26.26033 50.64942 20 ft 5 kts 61°
2026-05-08 11:34 26.26109 50.65000 18 ft 16 kts 11°
2026-05-08 11:35 26.26153 50.64972 18 ft 3 kts 306°
2026-05-08 11:35 26.26174 50.64940 19 ft 10 kts 304°
2026-05-08 11:35 26.26342 50.64657 17 ft 79 kts 302°
2026-05-08 11:35 26.26749 50.63944 17 ft 136 kts 303°
2026-05-08 11:36 26.27338 50.62932 174 ft 167 kts 305°
2026-05-08 11:36 26.27963 50.61837 886 ft 165 kts 302°
2026-05-08 11:36 26.28441 50.60717 1577 ft 162 kts 304°
2026-05-08 11:36 26.28889 50.59467 1716 ft 190 kts 284°
2026-05-08 11:37 26.28969 50.57888 1919 ft 216 kts 279°
2026-05-08 11:37 26.29052 50.56123 2102 ft 240 kts 279°
2026-05-08 11:37 26.29148 50.54176 2426 ft 262 kts 278°
2026-05-08 11:37 26.29241 50.52127 3145 ft 265 kts 276°
2026-05-08 11:38 26.29328 50.50067 3937 ft 267 kts 275°
2026-05-08 11:38 26.29413 50.47985 4687 ft 271 kts 275°
2026-05-08 11:38 26.29500 50.45870 5406 ft 275 kts 275°
2026-05-08 11:38 26.29589 50.43726 6160 ft 278 kts 274°
2026-05-08 11:39 26.29679 50.41560 6853 ft 282 kts 273°
2026-05-08 11:39 26.29770 50.39374 7631 ft 282 kts 273°
2026-05-08 11:39 26.29863 50.37185 8453 ft 282 kts 273°
2026-05-08 11:39 26.29959 50.34999 9255 ft 284 kts 272°
2026-05-08 11:40 26.30067 50.32795 9998 ft 286 kts 275°
2026-05-08 11:40 26.30359 50.30529 10297 ft 306 kts 278°
2026-05-08 11:40 26.30703 50.28094 10439 ft 329 kts 278°
2026-05-08 11:40 26.31076 50.25492 10568 ft 350 kts 278°
2026-05-08 11:41 26.31466 50.22774 10789 ft 358 kts 278°
2026-05-08 11:41 26.31864 50.20009 11026 ft 364 kts 278°
2026-05-08 11:41 26.32233 50.17222 11262 ft 363 kts 274°
2026-05-08 11:41 26.32260 50.14444 11500 ft 365 kts 268°
2026-05-08 11:42 26.32197 50.11583 11738 ft 366 kts 268°
2026-05-08 11:42 26.32134 50.08743 11987 ft 368 kts 268°
2026-05-08 11:42 26.32074 50.05925 12231 ft 370 kts 268°
2026-05-08 11:42 26.32012 50.03050 12479 ft 373 kts 268°
2026-05-08 11:43 26.31950 50.00151 12727 ft 374 kts 268°
2026-05-08 11:43 26.31887 49.97250 12980 ft 375 kts 267°
2026-05-08 11:43 26.31826 49.94351 13240 ft 374 kts 267°
2026-05-08 11:43 26.31763 49.91441 13507 ft 376 kts 266°
2026-05-08 11:44 26.31699 49.88518 13756 ft 378 kts 266°
2026-05-08 11:44 26.31635 49.85580 13984 ft 379 kts 266°
2026-05-08 11:44 26.31569 49.82644 14210 ft 379 kts 267°
2026-05-08 11:44 26.31501 49.79707 14441 ft 379 kts 265°
2026-05-08 11:45 26.31429 49.76763 14676 ft 381 kts 267°
2026-05-08 11:45 26.31360 49.73810 14912 ft 382 kts 266°
2026-05-08 11:45 26.31294 49.70848 15149 ft 383 kts 267°
2026-05-08 11:45 26.31227 49.67883 15388 ft 383 kts 266°
2026-05-08 11:46 26.31159 49.64913 15672 ft 383 kts 266°
2026-05-08 11:46 26.31087 49.61936 16038 ft 386 kts 266°
2026-05-08 11:46 26.31012 49.58941 16413 ft 388 kts 266°
2026-05-08 11:46 26.30934 49.55928 16786 ft 390 kts 266°
2026-05-08 11:47 26.30855 49.52901 17165 ft 392 kts 266°
2026-05-08 11:47 26.30778 49.49860 17559 ft 393 kts 266°
2026-05-08 11:47 26.30699 49.46808 17941 ft 395 kts 266°
2026-05-08 11:47 26.30621 49.43739 18313 ft 397 kts 266°
2026-05-08 11:48 26.30545 49.40654 18656 ft 399 kts 266°
2026-05-08 11:48 26.30468 49.37560 18997 ft 400 kts 265°
2026-05-08 11:48 26.30387 49.34454 19348 ft 402 kts 265°
2026-05-08 11:48 26.30304 49.31337 19696 ft 403 kts 265°
2026-05-08 11:49 26.30219 49.28206 20054 ft 404 kts 265°
2026-05-08 11:49 26.30133 49.25072 20417 ft 405 kts 265°
2026-05-08 11:49 26.30045 49.21928 20779 ft 407 kts 265°
2026-05-08 11:49 26.29958 49.18767 21147 ft 409 kts 265°
2026-05-08 11:50 26.29874 49.15588 21523 ft 411 kts 265°
2026-05-08 11:50 26.29789 49.12402 21904 ft 413 kts 265°
2026-05-08 11:50 26.29693 49.09192 22286 ft 414 kts 264°
2026-05-08 11:50 26.29524 49.05984 22682 ft 415 kts 262°
2026-05-08 11:51 26.29286 49.02773 23072 ft 417 kts 261°
2026-05-08 11:51 26.29009 48.99549 23467 ft 419 kts 261°
2026-05-08 11:51 26.28721 48.96317 23801 ft 420 kts 261°
2026-05-08 11:51 26.28438 48.93067 24134 ft 422 kts 261°
2026-05-08 11:52 26.28169 48.89815 24472 ft 423 kts 261°
2026-05-08 11:52 26.27911 48.86547 24815 ft 424 kts 261°
2026-05-08 11:52 26.27659 48.83274 25157 ft 424 kts 261°
2026-05-08 11:52 26.27408 48.79993 25510 ft 425 kts 261°
2026-05-08 11:53 26.27155 48.76717 25871 ft 425 kts 261°
2026-05-08 11:53 26.26905 48.73434 26233 ft 425 kts 261°
2026-05-08 11:53 26.26655 48.70159 26594 ft 425 kts 261°
2026-05-08 11:53 26.26402 48.66881 26960 ft 424 kts 261°
2026-05-08 11:54 26.26146 48.63613 27340 ft 424 kts 261°
2026-05-08 11:54 26.25885 48.60345 27716 ft 423 kts 260°
2026-05-08 11:54 26.25622 48.57089 28099 ft 422 kts 260°
2026-05-08 11:54 26.25358 48.53836 28491 ft 420 kts 259°
2026-05-08 11:55 26.24869 48.50650 28885 ft 414 kts 251°
2026-05-08 11:55 26.23938 48.47639 29289 ft 409 kts 243°
2026-05-08 11:55 26.22746 48.44774 29693 ft 407 kts 242°
2026-05-08 11:55 26.21555 48.41924 30094 ft 405 kts 242°
2026-05-08 11:56 26.20370 48.39088 30443 ft 403 kts 242°
2026-05-08 11:56 26.19191 48.36264 30789 ft 401 kts 242°
2026-05-08 11:56 26.18016 48.33451 31144 ft 400 kts 242°
2026-05-08 11:56 26.16846 48.30653 31502 ft 398 kts 242°
2026-05-08 11:57 26.15680 48.27868 31859 ft 396 kts 242°
2026-05-08 11:57 26.14520 48.25098 32227 ft 394 kts 242°
2026-05-08 11:57 26.13367 48.22347 32602 ft 392 kts 241°
2026-05-08 11:57 26.12215 48.19605 32972 ft 390 kts 241°
2026-05-08 11:58 26.10910 48.16989 33359 ft 384 kts 233°
2026-05-08 11:58 26.09278 48.14658 33744 ft 381 kts 229°
2026-05-08 11:58 26.07590 48.12392 34114 ft 379 kts 229°
2026-05-08 11:59 26.04253 48.07905 34800 ft 373 kts 229°
2026-05-08 11:59 26.02605 48.05679 35151 ft 370 kts 229°
2026-05-08 11:59 26.00976 48.03480 35510 ft 367 kts 229°
2026-05-08 11:59 25.99362 48.01303 35853 ft 364 kts 229°
2026-05-08 12:00 25.97742 47.99121 35954 ft 368 kts 229°
2026-05-08 12:00 25.96102 47.96915 35981 ft 372 kts 229°
2026-05-08 12:00 25.92760 47.92424 35982 ft 382 kts 229°
2026-05-08 12:01 25.89361 47.87860 35984 ft 384 kts 229°
2026-05-08 12:01 25.85946 47.83284 35977 ft 385 kts 229°
2026-05-08 12:02 25.82530 47.78711 35986 ft 384 kts 229°
2026-05-08 12:02 25.79117 47.74145 35962 ft 384 kts 229°
2026-05-08 12:03 25.75701 47.69578 35961 ft 385 kts 229°
2026-05-08 12:03 25.72856 47.65786 35969 ft 385 kts 229°
2026-05-08 12:04 25.69433 47.61219 35974 ft 385 kts 229°
2026-05-08 12:04 25.66012 47.56644 35983 ft 385 kts 229°
2026-05-08 12:05 25.62600 47.52071 35986 ft 385 kts 229°
2026-05-08 12:05 25.59175 47.47501 35988 ft 385 kts 229°
2026-05-08 12:06 25.55743 47.42945 35999 ft 385 kts 229°
2026-05-08 12:06 25.52306 47.38397 36005 ft 385 kts 229°
2026-05-08 12:07 25.48871 47.33838 36014 ft 385 kts 229°
2026-05-08 12:07 25.45463 47.29312 36013 ft 385 kts 229°
2026-05-08 12:08 25.42027 47.24766 36016 ft 385 kts 229°
2026-05-08 12:08 25.38589 47.20228 36008 ft 385 kts 229°
2026-05-08 12:09 25.35143 47.15674 35997 ft 386 kts 229°
2026-05-08 12:09 25.31703 47.11120 36014 ft 386 kts 229°
2026-05-08 12:10 25.28252 47.06565 36018 ft 386 kts 229°
2026-05-08 12:10 25.24795 47.02013 36021 ft 387 kts 229°
2026-05-08 12:11 25.21336 46.97464 36027 ft 387 kts 229°
2026-05-08 12:11 25.17878 46.92914 36029 ft 386 kts 229°
2026-05-08 12:12 25.14422 46.88375 36026 ft 386 kts 229°
2026-05-08 12:12 25.10968 46.83841 36037 ft 386 kts 229°
2026-05-08 12:13 25.07514 46.79309 36043 ft 386 kts 229°
2026-05-08 12:13 25.04054 46.74776 36042 ft 386 kts 229°
2026-05-08 12:14 25.00618 46.70277 36044 ft 386 kts 229°
2026-05-08 12:14 24.97295 46.65632 36035 ft 387 kts 236°
2026-05-08 12:15 24.94401 46.60639 36040 ft 387 kts 235°
2026-05-08 12:15 24.91487 46.55640 36020 ft 387 kts 236°
2026-05-08 12:16 24.88570 46.50647 36024 ft 388 kts 236°
2026-05-08 12:16 24.85650 46.45643 36027 ft 388 kts 236°
2026-05-08 12:17 24.82731 46.40645 36029 ft 388 kts 236°
2026-05-08 12:17 24.79805 46.35646 36041 ft 388 kts 236°
2026-05-08 12:18 24.76881 46.30652 36044 ft 388 kts 236°
2026-05-08 12:18 24.73982 46.25693 36044 ft 387 kts 236°
2026-05-08 12:19 24.71073 46.20717 36039 ft 387 kts 236°
2026-05-08 12:19 24.68157 46.15746 36024 ft 387 kts 235°
2026-05-08 12:20 24.65228 46.10773 36022 ft 387 kts 235°
2026-05-08 12:20 24.62302 46.05809 36022 ft 388 kts 235°
2026-05-08 12:21 24.59375 46.00833 36019 ft 388 kts 235°
2026-05-08 12:21 24.56442 45.95855 36027 ft 388 kts 235°
2026-05-08 12:22 24.53500 45.90873 36024 ft 389 kts 235°
2026-05-08 12:22 24.50557 45.85887 36023 ft 389 kts 235°
2026-05-08 12:23 24.47627 45.80926 36028 ft 390 kts 235°
2026-05-08 12:23 24.44787 45.75854 36024 ft 392 kts 241°
2026-05-08 12:24 24.42407 45.70460 36020 ft 392 kts 241°
2026-05-08 12:24 24.40009 45.65071 36023 ft 393 kts 241°
2026-05-08 12:25 24.37612 45.59679 36035 ft 393 kts 241°
2026-05-08 12:25 24.35206 45.54286 36041 ft 393 kts 240°
2026-05-08 12:26 24.32799 45.48899 36042 ft 393 kts 240°
2026-05-08 12:26 24.30407 45.43553 36042 ft 393 kts 240°
2026-05-08 12:27 24.28010 45.38178 36047 ft 392 kts 240°
2026-05-08 12:27 24.25609 45.32808 36048 ft 391 kts 240°
2026-05-08 12:28 24.23214 45.27455 36048 ft 391 kts 240°
2026-05-08 12:28 24.20815 45.22115 36053 ft 390 kts 240°
2026-05-08 12:29 24.18421 45.16775 36029 ft 390 kts 240°
2026-05-08 12:29 24.16024 45.11434 36043 ft 390 kts 240°
2026-05-08 12:30 24.13621 45.06098 36042 ft 390 kts 240°
2026-05-08 12:30 24.11225 45.00808 36040 ft 390 kts 240°
2026-05-08 12:31 24.08826 44.95486 36055 ft 390 kts 240°
2026-05-08 12:31 24.06429 44.90179 36054 ft 389 kts 240°
2026-05-08 12:32 24.04032 44.84876 36047 ft 388 kts 240°
2026-05-08 12:32 24.01636 44.79587 36046 ft 388 kts 240°
2026-05-08 12:33 23.99237 44.74293 36022 ft 388 kts 240°
2026-05-08 12:33 23.96836 44.68988 36021 ft 389 kts 240°
2026-05-08 12:34 23.94418 44.63678 36022 ft 391 kts 240°
2026-05-08 12:34 23.92104 44.58303 36035 ft 392 kts 244°
2026-05-08 12:35 23.90155 44.52736 36055 ft 392 kts 245°
2026-05-08 12:35 23.88204 44.47187 36039 ft 391 kts 244°
2026-05-08 12:36 23.86252 44.41644 36037 ft 391 kts 245°
2026-05-08 12:36 23.84310 44.36135 36031 ft 390 kts 244°
2026-05-08 12:37 23.82356 44.30605 36029 ft 390 kts 244°
2026-05-08 12:37 23.80409 44.25079 36021 ft 390 kts 244°
2026-05-08 12:38 23.78459 44.19547 36036 ft 390 kts 244°
2026-05-08 12:38 23.76505 44.14022 36024 ft 390 kts 244°
2026-05-08 12:39 23.74541 44.08494 35995 ft 390 kts 244°
2026-05-08 12:39 23.72571 44.02970 36001 ft 390 kts 244°
2026-05-08 12:40 23.70606 43.97446 36010 ft 391 kts 244°
2026-05-08 12:40 23.68646 43.91912 36008 ft 391 kts 244°
2026-05-08 12:41 23.66675 43.86383 36005 ft 391 kts 244°
2026-05-08 12:41 23.64700 43.80860 36031 ft 391 kts 244°
2026-05-08 12:42 23.62737 43.75372 36014 ft 391 kts 244°
2026-05-08 12:42 23.60763 43.69851 36013 ft 391 kts 244°
2026-05-08 12:43 23.58788 43.64325 36024 ft 391 kts 244°
2026-05-08 12:43 23.56802 43.58802 36041 ft 391 kts 244°
2026-05-08 12:44 23.54818 43.53284 36040 ft 391 kts 244°
2026-05-08 12:44 23.52836 43.47771 36046 ft 391 kts 244°
2026-05-08 12:45 23.50845 43.42255 36043 ft 391 kts 244°
2026-05-08 12:45 23.48855 43.36732 36036 ft 392 kts 244°
2026-05-08 12:46 23.46857 43.31208 36047 ft 392 kts 244°
2026-05-08 12:46 23.44862 43.25675 36057 ft 393 kts 244°
2026-05-08 12:47 23.42857 43.20141 36055 ft 393 kts 244°
2026-05-08 12:47 23.40849 43.14603 36064 ft 393 kts 244°
2026-05-08 12:48 23.38838 43.09053 36075 ft 394 kts 244°
2026-05-08 12:48 23.36830 43.03510 36062 ft 394 kts 244°
2026-05-08 12:49 23.35155 42.98907 36079 ft 393 kts 244°
2026-05-08 12:49 23.32797 42.92486 36072 ft 392 kts 244°
2026-05-08 12:50 23.31117 42.87899 36074 ft 392 kts 244°
2026-05-08 12:50 23.29106 42.82379 36081 ft 392 kts 244°
2026-05-08 12:51 23.26078 42.74095 36054 ft 393 kts 244°
2026-05-08 12:52 23.24046 42.68556 36061 ft 394 kts 244°
2026-05-08 12:52 23.21003 42.60281 36078 ft 395 kts 244°
2026-05-08 12:53 23.18966 42.54746 36084 ft 394 kts 244°
2026-05-08 12:53 23.16937 42.49226 36082 ft 393 kts 244°
2026-05-08 12:54 23.14903 42.43713 36059 ft 393 kts 244°
2026-05-08 12:54 23.12861 42.38197 36071 ft 393 kts 243°
2026-05-08 12:55 23.10838 42.32678 36074 ft 394 kts 244°
2026-05-08 12:55 23.08867 42.27128 36076 ft 394 kts 244°
2026-05-08 12:56 23.06896 42.21576 36073 ft 394 kts 244°
2026-05-08 12:56 23.04918 42.16035 36089 ft 393 kts 244°
2026-05-08 12:57 23.02943 42.10506 36065 ft 392 kts 244°
2026-05-08 12:57 23.00973 42.04991 36064 ft 392 kts 244°
2026-05-08 12:58 22.99008 41.99510 36062 ft 392 kts 244°
2026-05-08 12:58 22.97026 41.94000 36072 ft 391 kts 243°
2026-05-08 12:59 22.95043 41.88505 36071 ft 390 kts 243°
2026-05-08 12:59 22.93071 41.83024 36068 ft 390 kts 243°
2026-05-08 13:00 22.91091 41.77538 36075 ft 389 kts 243°
2026-05-08 13:00 22.89120 41.72070 36054 ft 389 kts 243°
2026-05-08 13:01 22.87157 41.66640 36054 ft 389 kts 243°
2026-05-08 13:01 22.85177 41.61175 36052 ft 389 kts 243°
2026-05-08 13:02 22.83204 41.55714 36072 ft 389 kts 244°
2026-05-08 13:02 22.81223 41.50264 36071 ft 388 kts 244°
2026-05-08 13:03 22.79248 41.44826 36065 ft 387 kts 244°
2026-05-08 13:03 22.77272 41.39393 36028 ft 387 kts 243°
2026-05-08 13:04 22.75293 41.33956 36044 ft 388 kts 244°
2026-05-08 13:04 22.73311 41.28520 36040 ft 388 kts 244°
2026-05-08 13:05 22.71336 41.23121 36037 ft 388 kts 244°
2026-05-08 13:05 22.69345 41.17690 36034 ft 388 kts 244°
2026-05-08 13:06 22.67357 41.12258 36040 ft 388 kts 244°
2026-05-08 13:06 22.65366 41.06828 36032 ft 388 kts 244°
2026-05-08 13:07 22.63384 41.01433 36017 ft 388 kts 244°
2026-05-08 13:07 22.61385 40.96004 36016 ft 388 kts 244°
2026-05-08 13:08 22.59380 40.90574 36025 ft 389 kts 244°
2026-05-08 13:08 22.57376 40.85139 36022 ft 389 kts 244°
2026-05-08 13:09 22.55369 40.79699 36029 ft 389 kts 244°
2026-05-08 13:09 22.53357 40.74257 36033 ft 390 kts 244°
2026-05-08 13:10 22.51342 40.68814 36007 ft 390 kts 244°
2026-05-08 13:10 22.49325 40.63368 36015 ft 390 kts 244°
2026-05-08 13:11 22.47302 40.57917 36011 ft 391 kts 244°
2026-05-08 13:11 22.45276 40.52468 36025 ft 391 kts 244°
2026-05-08 13:12 22.43250 40.47010 35936 ft 392 kts 244°
2026-05-08 13:12 22.42232 40.44277 35694 ft 392 kts 244°
2026-05-08 13:12 22.41211 40.41538 35452 ft 393 kts 244°
2026-05-08 13:13 22.40185 40.38791 35220 ft 394 kts 245°
2026-05-08 13:13 22.39155 40.36040 34985 ft 396 kts 245°
2026-05-08 13:13 22.38124 40.33281 34423 ft 397 kts 245°
2026-05-08 13:13 22.37091 40.30510 33599 ft 398 kts 245°
2026-05-08 13:14 22.36068 40.27765 32779 ft 398 kts 246°
2026-05-08 13:14 22.35033 40.24984 31926 ft 400 kts 247°
2026-05-08 13:14 22.33989 40.22181 31029 ft 403 kts 248°
2026-05-08 13:14 22.32935 40.19361 30138 ft 406 kts 249°
2026-05-08 13:15 22.31866 40.16508 29056 ft 411 kts 249°
2026-05-08 13:15 22.30789 40.13639 28004 ft 414 kts 249°
2026-05-08 13:15 22.29703 40.10751 26949 ft 417 kts 249°
2026-05-08 13:15 22.28604 40.07832 25871 ft 422 kts 250°
2026-05-08 13:16 22.27497 40.04886 25030 ft 422 kts 250°
2026-05-08 13:16 22.26318 40.02047 24845 ft 407 kts 244°
2026-05-08 13:16 22.24845 39.99501 24729 ft 393 kts 240°
2026-05-08 13:16 22.23365 39.97086 24612 ft 378 kts 240°
2026-05-08 13:17 22.21941 39.94756 24482 ft 365 kts 240°
2026-05-08 13:17 22.20570 39.92511 24327 ft 353 kts 240°
2026-05-08 13:17 22.19235 39.90326 24073 ft 345 kts 241°
2026-05-08 13:17 22.17920 39.88173 23861 ft 343 kts 241°
2026-05-08 13:18 22.16612 39.86025 23642 ft 342 kts 241°
2026-05-08 13:18 22.15305 39.83879 23206 ft 342 kts 241°
2026-05-08 13:18 22.14001 39.81740 22708 ft 341 kts 240°
2026-05-08 13:18 22.12699 39.79610 22221 ft 339 kts 240°
2026-05-08 13:19 22.11406 39.77499 21828 ft 336 kts 240°
2026-05-08 13:19 22.10114 39.75394 21352 ft 335 kts 240°
2026-05-08 13:19 22.08837 39.73317 20991 ft 331 kts 239°
2026-05-08 13:19 22.07566 39.71251 20560 ft 329 kts 239°
2026-05-08 13:20 22.06308 39.69203 20165 ft 327 kts 239°
2026-05-08 13:20 22.05060 39.67166 19776 ft 324 kts 239°
2026-05-08 13:20 22.03825 39.65147 19387 ft 322 kts 238°
2026-05-08 13:20 22.02596 39.63143 19014 ft 319 kts 238°
2026-05-08 13:21 22.01374 39.61154 18653 ft 317 kts 238°
2026-05-08 13:21 22.00159 39.59181 18300 ft 315 kts 237°
2026-05-08 13:21 21.98952 39.57219 17897 ft 313 kts 237°
2026-05-08 13:21 21.97754 39.55270 17491 ft 311 kts 237°
2026-05-08 13:22 21.96561 39.53332 17098 ft 310 kts 237°
2026-05-08 13:22 21.95374 39.51400 16704 ft 308 kts 237°
2026-05-08 13:22 21.94226 39.49462 16315 ft 306 kts 242°
2026-05-08 13:22 21.93304 39.47403 15921 ft 305 kts 244°
2026-05-08 13:23 21.92392 39.45344 15554 ft 304 kts 244°
2026-05-08 13:23 21.91478 39.43295 15148 ft 304 kts 244°
2026-05-08 13:23 21.90543 39.41204 14377 ft 316 kts 244°
2026-05-08 13:23 21.89573 39.39034 13580 ft 328 kts 244°
2026-05-08 13:24 21.88569 39.36784 12673 ft 338 kts 244°
2026-05-08 13:24 21.87537 39.34470 11871 ft 345 kts 244°
2026-05-08 13:24 21.86514 39.32175 11458 ft 340 kts 244°
2026-05-08 13:24 21.85506 39.29916 11025 ft 334 kts 244°
2026-05-08 13:25 21.84500 39.27667 10546 ft 332 kts 244°
2026-05-08 13:25 21.83502 39.25440 10052 ft 330 kts 244°
2026-05-08 13:25 21.82261 39.23387 9557 ft 328 kts 224°
2026-05-08 13:25 21.80310 39.22175 9047 ft 327 kts 195°
2026-05-08 13:26 21.78064 39.22124 8583 ft 325 kts 169°
2026-05-08 13:26 21.75935 39.22912 8114 ft 323 kts 156°
2026-05-08 13:26 21.73936 39.24010 7628 ft 322 kts 152°
2026-05-08 13:26 21.71964 39.25150 7142 ft 321 kts 153°
2026-05-08 13:27 21.69973 39.26217 6685 ft 318 kts 155°
2026-05-08 13:27 21.67964 39.27178 6234 ft 314 kts 158°
2026-05-08 13:27 21.65944 39.28050 5768 ft 311 kts 159°
2026-05-08 13:27 21.63928 39.28862 5318 ft 307 kts 160°
2026-05-08 13:28 21.61929 39.29642 4879 ft 304 kts 160°
2026-05-08 13:28 21.59948 39.30402 4436 ft 301 kts 160°
2026-05-08 13:28 21.57984 39.31154 4002 ft 298 kts 160°
2026-05-08 13:28 21.56043 39.31902 3577 ft 295 kts 160°
2026-05-08 13:29 21.54127 39.32647 3161 ft 291 kts 160°
2026-05-08 13:29 21.52260 39.33376 3012 ft 278 kts 160°
2026-05-08 13:29 21.50443 39.33738 3017 ft 257 kts 185°
2026-05-08 13:29 21.48828 39.33171 3021 ft 237 kts 216°
2026-05-08 13:30 21.47778 39.31901 3024 ft 225 kts 241°
2026-05-08 13:30 21.47222 39.30344 3016 ft 224 kts 260°
2026-05-08 13:30 21.47156 39.28724 3013 ft 211 kts 278°
2026-05-08 13:30 21.47535 39.27236 3013 ft 205 kts 295°
2026-05-08 13:31 21.48266 39.25993 3043 ft 188 kts 311°
2026-05-08 13:31 21.49194 39.25095 3013 ft 172 kts 326°
2026-05-08 13:31 21.50204 39.24526 3001 ft 158 kts 340°
2026-05-08 13:31 21.51221 39.24127 2989 ft 154 kts 340°
2026-05-08 13:32 21.52214 39.23736 2876 ft 151 kts 340°
2026-05-08 13:32 21.53176 39.23358 2723 ft 147 kts 341°
2026-05-08 13:32 21.54124 39.22985 2549 ft 145 kts 339°
2026-05-08 13:32 21.55060 39.22616 2385 ft 142 kts 339°
2026-05-08 13:33 21.55963 39.22261 2207 ft 135 kts 341°
2026-05-08 13:33 21.56865 39.21906 2030 ft 136 kts 340°
2026-05-08 13:33 21.57747 39.21559 1865 ft 136 kts 339°
2026-05-08 13:33 21.58629 39.21212 1672 ft 136 kts 339°
2026-05-08 13:34 21.59520 39.20861 1504 ft 135 kts 338°
2026-05-08 13:34 21.60111 39.20629 1388 ft 133 kts 339°
2026-05-08 13:34 21.60997 39.20280 1233 ft 130 kts 338°
2026-05-08 13:34 21.61831 39.19951 1055 ft 131 kts 338°
2026-05-08 13:35 21.62670 39.19621 891 ft 132 kts 339°
2026-05-08 13:35 21.63525 39.19284 735 ft 130 kts 339°
2026-05-08 13:35 21.64380 39.18947 572 ft 132 kts 339°
2026-05-08 13:35 21.65239 39.18608 410 ft 130 kts 338°
2026-05-08 13:36 21.66097 39.18272 204 ft 132 kts 338°
2026-05-08 13:36 21.66953 39.17933 41 ft 126 kts 337°
2026-05-08 13:36 21.67630 39.17661 34 ft 67 kts 340°
2026-05-08 13:36 21.67827 39.17582 33 ft 18 kts 339°
2026-05-08 13:37 21.67996 39.17482 33 ft 31 kts 321°
2026-05-08 13:37 21.68109 39.17350 31 ft 22 kts 310°
2026-05-08 13:37 21.68188 39.17248 30 ft 15 kts 306°
2026-05-08 13:37 21.68275 39.17172 27 ft 20 kts 335°
2026-05-08 13:38 21.68411 39.17118 28 ft 21 kts 340°
2026-05-08 13:38 21.68488 39.17019 28 ft 18 kts 236°
2026-05-08 13:38 21.68414 39.17016 29 ft 14 kts 159°
2026-05-08 13:38 21.68268 39.17072 29 ft 31 kts 160°
2026-05-08 13:39 21.68093 39.17142 31 ft 23 kts 160°
2026-05-08 13:39 21.67937 39.17203 30 ft 24 kts 160°
2026-05-08 13:39 21.67772 39.17269 30 ft 27 kts 159°
2026-05-08 13:39 21.67591 39.17341 30 ft 29 kts 160°
2026-05-08 13:40 21.67407 39.17412 30 ft 18 kts 160°
2026-05-08 13:40 21.67290 39.17458 30 ft 17 kts 160°
2026-05-08 13:40 21.67195 39.17433 30 ft 15 kts 247°
2026-05-08 13:40 21.67129 39.17347 30 ft 15 kts 221°
2026-05-08 13:41 21.67050 39.17286 30 ft 10 kts 207°
2026-05-08 13:41 21.67048 39.17285 30 ft 0 kts 205°
2026-05-08 13:41 21.67036 39.17278 30 ft 0 kts 205°
2026-05-08 13:42 21.67029 39.17272 30 ft 5 kts 227°
2026-05-08 13:42 21.67022 39.17225 30 ft 9 kts 270°
2026-05-08 13:42 21.67024 39.17164 30 ft 5 kts 272°
2026-05-08 13:42 21.67025 39.17157 30 ft 0 kts 272°